Regional Weather Roundup
Issued by NWS

Home | Current Version | Previous Version | Text Only | Print | Product List | Glossary Off
Versions: 1 2 3 4 5 6 7 8 9 10 11 12 13 14 15 16 17 18 19 20 21 22 23 24 25 26 27 28 29 30 31 32 33 34 35 36 37 38 39 40 41 42 43 44 45

597
ASUS44 KJAN 021710
RWRMS

MISSISSIPPI HOURLY WEATHER ROUNDUP
NATIONAL WEATHER SERVICE JACKSON MS
1200 PM CDT TUE SEP 02 2014

NOTE: "FAIR: INDICATES FEW OR NO CLOUDS BELOW 12,000 FEET WITH NO
SIGNIFICANT WEATHER AND/OR OBSTRUCTIONS TO VISIBILITY.

MSZ001>002-007>008-010>013-018>021-025>028-034>036-021800-
NORTHWEST MISSISSIPPI

CITY           SKY/WX    TMP DP  RH WIND       PRES   REMARKS
CLARKSDALE     CLOUDY    84  75  74 CALM      30.06F HX  92
CLEVELAND      CLOUDY    85  77  77 SW8       30.05F HX  95
GREENWOOD      LGT RAIN  81  76  84 CALM      30.07F
GREENVILLE     PTSUNNY   86  75  69 W8        30.05F HX  95
GRENADA        FAIR      82  73  74 NW6       30.05F
OLIVE BRANCH   PTSUNNY   84  81  89 SW10      30.07S HX  98
OXFORD         PTSUNNY   82  73  74 W7        30.07F
TUNICA         PTSUNNY   82  73  74 SW9       30.05F
$$

MSZ003>006-009-014>017-022>024-029>033-037>039-021800-
NORTHEAST MISSISSIPPI

CITY           SKY/WX    TMP DP  RH WIND       PRES   REMARKS
COLUMBUS AFB   PTSUNNY   90  72  55 VRB1      30.06F HX  96
CORINTH        PTSUNNY   86  73  66 VRB6      30.04F HX  93
GOLDN TRIANGLE PTSUNNY   88  73  62 S7        30.07F HX  96
STARKVILLE     PTSUNNY   84  72  65 NW7G17    30.07S THUNDER
TUPELO         MOSUNNY   89  74  60 S9        30.04F HX  98
$$

MSZ040-058-021800-
CENTRAL MISSISSIPPI

CITY           SKY/WX    TMP DP  RH WIND       PRES   REMARKS
JACKSON INTL   PTSUNNY   83  76  79 S6        30.08F HX  91
JACKSON HAWKNS MOSUNNY   85  75  72 S7        30.09S HX  93
MERIDIAN KEY   CLOUDY    85  73  67 VRB5      30.08F HX  91
MERIDIAN NAS   CLOUDY    87  73  62 SW7       30.08F HX  94
RAYMOND        FAIR      88  82  84 S10       30.07F HX 108
VICKSBURG      SUNNY     88  74  63 VRB6      30.06F HX  96
$$

MSZ059>079-021800-
SOUTH MISSISSIPPI

CITY           SKY/WX    TMP DP  RH WIND       PRES   REMARKS
BROOKHAVEN     FAIR      86  75  70 SW6       30.11S HX  95
HATTIESBURG    PTSUNNY   90  74  59 NW5       30.08F HX  99
MCCOMB         PTSUNNY   88  73  61 SW8       30.08F HX  95
NATCHEZ        PTSUNNY   88  75  66 SW9       30.08S HX  97
PINE BELT      PTSUNNY   88  73  62 S7        30.11S HX  96
$$

MSZ080>082-021800-
COASTAL MISSISSIPPI

CITY           SKY/WX    TMP DP  RH WIND       PRES   REMARKS
BAY ST LOUIS   MOSUNNY  N/A N/A N/A S6        30.08S
BILOXI         MOSUNNY   89  76  66 S8        30.08S HX 100
PASCAGOULA     PTSUNNY   89  73  59 VRB3      30.07F HX  97
GULFPORT       PTSUNNY   88  73  61 SE9       30.07F HX  95
$$



USA.gov is the U.S. government's official web portal to all federal, state and local government web resources and services.